Location: Bacharowice
(49.9333°N, 19.5833°E)
Time: 02:27:01
(UTC+00:00)

Meteor 1-23 Rocket - Pass Details

Date: 11 May 2021
Orbit: 838 x 887 km, 81.3° (Epoch: 22 June)

Event Time Altitude Azimuth Distance (km) Brightness Sun altitude
Exits shadow 23:03:21 42° 161° (SSE) 1,254 4.6 -21.7°
Maximum altitude 23:05:17 65° 97° (E) 973 4.4 -21.7°
Drops below altitude 10° 23:11:03 10° 17° (NNE) 2,564 7.8 -21.5°
Sets 23:13:32 0° 15° (NNE) 3,506 8.9 -21.5°
